Find Star One C2

NORAD ID: 32768 Int'l Des: 2008-018 Owner: STONE Country: BR operational
HEOCIRCULARGSO

Live Position

Loading 3D Globe...

About Star One C2

Description loading...

Upcoming Passes

Passes for default location (London). Set your location on the main map for personalized predictions.

Altitude History

Loading altitude history...

Two-Line Element Set

1 32768U 08018B 26104.21728282 -.00000271 00000-0 00000-0 0 9999
2 32768 1.0764 82.9645 0002748 303.3118 189.3388 1.00269358 66017
Epoch: Apr 14, 2026 • Age: 13 hours

Current Status

Altitude 35776.9 km
Velocity 3.08 km/s
Sub-Earth Point -0.48°S, 64.99°W
Launch Date Apr 18, 2008
Age 17.9 years
Type other

Technical Details

Classification Payload
Mass 4100.00 kg
Dry Mass 1750.00 kg
Total Mass 4100.00 kg
Length 4.00 m
Diameter 2.40 m
Span 22.40 m
Shape Box + 2 Pan
Manufacturer THALA
Bus Type Spacebus 3000B3
Phase Status In Orbit
Owner/State STONE/BR

Most Searched